Date String (YYYY-MM-DD hh:mm:ss) UTC,Instrument flags,Ambient pressure (hPa),Sample flow (lpm),Bypass flow (lpm),Sample temperature (°C),Ambient temperature (°C),ASC tube jacket temperature (°C),LED temperature (°C),Box temperature (°C),Sample RH (%),Span deviation,Mass concentration (μg/m³),Mass concentration (μg/m³),Mass concentration (μg/m³)
DateTimeUTC,F1_M11,P_M11,Q1_M11,Q2_M11,T1_M11,T2_M11,T3_M11,T4_M11,T5_M11,U1_M11,ZSPAN_M11,X2_M11,X0_M11,X1_M11
2023-03-07 11:00:00,,0824.8,5.01,0.00,22.5,20.8,00.0,31.3,24.2,15.4,0000.0,0004.16,0005.69,0004.06
2023-03-07 11:01:00,,0824.7,5.00,0.00,22.5,20.7,00.0,31.3,24.1,15.4,0000.0,0004.14,0005.64,0004.04
2023-03-07 11:02:00,,0824.7,5.00,0.00,22.5,20.6,00.0,31.3,24.1,15.4,0000.0,0004.11,0005.60,0004.01
2023-03-07 11:03:00,,0824.7,5.01,0.00,22.4,20.5,00.0,31.2,24.0,15.4,0000.0,0004.08,0005.55,0003.99
2023-03-07 11:04:00,,0824.4,5.00,0.00,22.4,20.5,00.0,31.2,24.0,15.5,0000.0,0004.08,0005.57,0003.97
2023-03-07 11:05:00,,0824.4,4.99,0.00,22.4,21.4,00.0,31.2,24.2,15.5,0000.0,0004.07,0005.56,0003.96
2023-03-07 11:06:00,,0824.6,5.01,0.00,22.6,22.5,00.0,31.2,24.4,15.4,0000.0,0004.07,0005.53,0003.96
2023-03-07 11:07:00,,0824.8,5.00,0.00,22.7,23.1,00.0,31.2,24.6,15.3,0000.0,0004.08,0005.58,0003.96
2023-03-07 11:08:00,,0824.7,5.01,0.00,22.7,22.6,00.0,31.3,24.5,15.3,0000.0,0004.07,0005.57,0003.96
2023-03-07 11:09:00,,0824.7,4.97,0.00,22.7,22.2,00.0,31.3,24.5,15.3,0000.0,0004.06,0005.57,0003.96
2023-03-07 11:10:00,,0824.6,5.00,0.00,22.7,21.8,00.0,31.3,24.4,15.3,0000.0,0004.05,0005.47,0003.96
2023-03-07 11:11:00,,0824.6,5.00,0.00,22.6,21.5,00.0,31.3,24.3,15.3,0000.0,0004.05,0005.37,0003.97
2023-03-07 11:12:00,,0824.7,5.00,0.00,22.6,21.2,00.0,31.3,24.3,15.3,0000.0,0004.04,0005.34,0003.96
2023-03-07 11:13:00,,0824.6,5.00,0.00,22.6,21.1,00.0,31.3,24.2,15.3,0000.0,0004.04,0005.41,0003.96
2023-03-07 11:14:00,,0824.7,5.01,0.00,22.6,20.9,00.0,31.3,24.2,15.4,0000.0,0004.03,0005.41,0003.95
2023-03-07 11:15:00,,0824.7,5.00,0.00,22.5,20.7,00.0,31.3,24.1,15.4,0000.0,0004.02,0005.41,0003.94
2023-03-07 11:16:00,,0824.6,5.00,0.00,22.5,20.7,00.0,31.3,24.1,15.4,0000.0,0003.99,0005.45,0003.91
2023-03-07 11:17:00,,0824.6,5.00,0.00,22.5,20.6,00.0,31.3,24.1,15.4,0000.0,0003.97,0005.75,0003.89
2023-03-07 11:18:00,,0824.7,5.00,0.00,22.5,21.1,00.0,31.2,24.2,15.4,0000.0,0003.95,0006.20,0003.86
2023-03-07 11:19:00,,0824.8,5.00,0.00,22.6,22.2,00.0,31.2,24.4,15.3,0000.0,0003.92,0006.16,0003.82
2023-03-07 11:20:00,,0824.9,5.00,0.00,22.7,23.1,00.0,31.3,24.6,15.2,0000.0,0003.89,0006.10,0003.79
2023-03-07 11:21:00,,0824.8,5.00,0.00,22.7,22.9,00.0,31.3,24.6,15.2,0000.0,0003.87,0006.07,0003.77
2023-03-07 11:22:00,,0824.9,5.03,0.00,22.7,22.4,00.0,31.3,24.5,15.2,0000.0,0003.83,0006.00,0003.73
2023-03-07 11:23:00,,0824.7,5.01,0.00,22.7,22.0,00.0,31.3,24.4,15.2,0000.0,0003.81,0005.93,0003.71
2023-03-07 11:24:00,,0824.9,4.99,0.00,22.7,21.6,00.0,31.4,24.3,15.2,0000.0,0003.78,0005.84,0003.69
2023-03-07 11:25:00,,0824.9,5.00,0.00,22.6,21.3,00.0,31.3,24.3,15.2,0000.0,0003.77,0005.82,0003.67
2023-03-07 11:26:00,,0824.8,5.00,0.00,22.6,21.0,00.0,31.3,24.2,15.3,0000.0,0003.78,0005.84,0003.68
2023-03-07 11:27:00,,0824.7,4.99,0.00,22.6,20.8,00.0,31.3,24.1,15.3,0000.0,0003.79,0005.78,0003.68
2023-03-07 11:28:00,,0824.7,5.00,0.00,22.5,20.6,00.0,31.3,24.1,15.3,0000.0,0003.78,0005.40,0003.68
2023-03-07 11:29:00,,0824.8,5.02,0.00,22.5,20.5,00.0,31.3,24.0,15.3,0000.0,0003.78,0004.96,0003.69
2023-03-07 11:30:00,,0824.9,4.99,0.00,22.4,20.4,00.0,31.3,23.9,15.4,0000.0,0003.79,0004.95,0003.70
2023-03-07 11:31:00,,0824.9,5.00,0.00,22.4,20.3,00.0,31.3,23.9,15.4,0000.0,0003.78,0004.92,0003.70
2023-03-07 11:32:00,,0824.7,5.01,0.00,22.4,21.0,00.0,31.2,24.0,15.4,0000.0,0003.78,0004.92,0003.69
2023-03-07 11:33:00,,0824.7,4.98,0.00,22.5,22.2,00.0,31.2,24.3,15.3,0000.0,0003.79,0004.95,0003.70
2023-03-07 11:34:00,,0824.9,4.98,0.00,22.6,23.0,00.0,31.2,24.5,15.2,0000.0,0003.80,0005.08,0003.69
2023-03-07 11:35:00,,0824.9,5.00,0.00,22.7,22.7,00.0,31.3,24.5,15.2,0000.0,0003.80,0005.08,0003.69
2023-03-07 11:36:00,,0824.8,4.98,0.00,22.7,22.2,00.0,31.3,24.5,15.2,0000.0,0003.79,0005.03,0003.69
2023-03-07 11:37:00,,0824.7,5.01,0.00,22.6,21.8,00.0,31.3,24.4,15.2,0000.0,0003.79,0005.05,0003.68
2023-03-07 11:38:00,,0824.7,5.00,0.00,22.6,21.4,00.0,31.3,24.2,15.2,0000.0,0003.77,0004.99,0003.68
2023-03-07 11:39:00,,0824.8,5.00,0.00,22.6,21.1,00.0,31.3,24.2,15.2,0000.0,0003.80,0005.08,0003.68
2023-03-07 11:40:00,,0824.9,4.99,0.00,22.6,20.9,00.0,31.3,24.2,15.2,0000.0,0003.79,0005.01,0003.69
2023-03-07 11:41:00,,0825.0,5.00,0.00,22.5,20.7,00.0,31.3,24.1,15.3,0000.0,0003.79,0005.02,0003.68
2023-03-07 11:42:00,,0824.9,4.99,0.00,22.5,20.5,00.0,31.3,24.0,15.3,0000.0,0003.79,0005.06,0003.68
2023-03-07 11:43:00,,0824.9,4.99,0.00,22.4,20.4,00.0,31.3,23.9,15.3,0000.0,0003.79,0005.04,0003.68
2023-03-07 11:44:00,,0824.9,5.01,0.00,22.4,20.3,00.0,31.2,23.9,15.3,0000.0,0003.76,0004.98,0003.65
2023-03-07 11:45:00,,0824.9,5.00,0.00,22.4,20.2,00.0,31.2,23.9,15.4,0000.0,0003.74,0004.88,0003.63
2023-03-07 11:46:00,,0824.9,5.00,0.00,22.3,20.1,00.0,31.2,23.9,15.4,0000.0,0003.74,0004.92,0003.61
2023-03-07 11:47:00,,0824.9,5.01,0.00,22.3,20.3,00.0,31.2,23.9,15.4,0000.0,0003.72,0004.92,0003.58
2023-03-07 11:48:00,,0824.9,4.99,0.00,22.4,21.6,00.0,31.1,24.1,15.4,0000.0,0003.68,0004.81,0003.55
2023-03-07 11:49:00,,0824.9,4.99,0.00,22.5,22.7,00.0,31.1,24.4,15.3,0000.0,0003.64,0004.76,0003.51
2023-03-07 11:50:00,,0825.1,5.00,0.00,22.6,22.8,00.0,31.2,24.4,15.3,0000.0,0003.59,0004.71,0003.47
2023-03-07 11:51:00,,0825.2,4.99,0.00,22.6,22.4,00.0,31.2,24.4,15.3,0000.0,0003.55,0004.79,0003.42
2023-03-07 11:52:00,,0825.0,5.02,0.00,22.6,21.9,00.0,31.2,24.3,15.3,0000.0,0003.51,0004.72,0003.39
2023-03-07 11:53:00,,0824.9,5.00,0.00,22.5,21.5,00.0,31.2,24.2,15.3,0000.0,0003.49,0004.71,0003.36
2023-03-07 11:54:00,,0824.9,5.00,0.00,22.5,21.2,00.0,31.2,24.1,15.3,0000.0,0003.47,0004.69,0003.32
2023-03-07 11:55:00,,0824.9,5.01,0.00,22.5,20.9,00.0,31.2,24.1,15.3,0000.0,0003.46,0004.72,0003.31
2023-03-07 11:56:00,,0824.9,5.01,0.00,22.4,20.7,00.0,31.2,24.0,15.4,0000.0,0003.44,0004.64,0003.29
2023-03-07 11:57:00,,0824.9,5.00,0.00,22.4,20.6,00.0,31.2,24.0,15.4,0000.0,0003.42,0004.58,0003.27
2023-03-07 11:58:00,,0824.9,4.97,0.00,22.4,20.5,00.0,31.2,24.0,15.5,0000.0,0003.38,0004.48,0003.25
2023-03-07 11:59:00,,0824.9,5.00,0.00,22.4,20.4,00.0,31.2,24.0,15.5,0000.0,0003.37,0004.45,0003.24
